Preview of NWS' New Version of Forecast
This preview is not operational and should not be used for support decisions.

Regional Weather Roundup (RWR)

Issued by Gray - Portland, ME (GYX)

                            
607 
ASUS41 KGYX 251510
RWRGYX
WEATHER ROUNDUP FOR MAINE AND NEW HAMPSHIRE
NATIONAL WEATHER SERVICE GRAY ME
1000 AM EST SUN FEB 25 2018

MEZ002-005-006-010-012-015-018-020-021-024-026-027-029-251600-
MAINE
  
CITY           SKY/WX    TMP DP  RH WIND       PRES   REMARKS
PORTLAND       LGT SNOW  36  28  75 E17G29    30.28F VSB 1            
SANFORD        SNOW      31  30  96 NE5       30.27S VSB 1/4          
BAR HARBOR     FAIR      28  17  63 E6        30.37S                  
WISCASSET      CLOUDY    32  20  61 E9        30.32F                  
ROCKLAND       FAIR      32  22  66 NE10      30.33F                  
FRYEBURG       HVY SNOW  26  26 100 NE6       30.29S VSB 1/4          
LEWISTONAUBURN CLOUDY    30  18  60 E5        30.29F                  
AUGUSTA        CLOUDY    29  13  51 E6        30.31F                  
WATERVILLE     CLOUDY    27  12  53 VRB5      30.27                   
BANGOR         CLOUDY    27  11  51 E8        30.37S                  
GREENVILLE       N/A     18   5  57 SE12G18   30.21F WCI   5          
MILLINOCKET    FAIR      20   7  57 SE6       30.36F                  
HOULTON        FAIR      19   6  57 E7        30.36F                  
PRESQUE ISLE   FAIR      14   4  64 S3        30.36F                  
FRENCHVILLE    FAIR       9   1  70 E7        30.30F                  
CARIBOU        FAIR      13   3  64 SE5       30.34F                  
$$

NHZ002-005-008-009-011-012-014-251600-
NEW HAMPSHIRE
  
CITY           SKY/WX    TMP DP  RH WIND       PRES   REMARKS
PORTSMOUTH     LGT SNOW  36  33  89 E12G20    30.23F FOG              
ROCHESTER      SNOW      31  31 100 NE5       30.25F VSB 1/2          
NASHUA         RAIN      33  32  96 CALM      30.25F FOG              
MANCHESTER     LGT RAIN  34  32  92 CALM      30.23S FOG              
CONCORD        LGT SNOW  32  29  88 NE3       30.24S FOG              
LACONIA        SNOW      28  25  88 N3        30.24F VSB 1/4          
PLYMOUTH       LGT SNOW  28  26  92 E6        30.24S VSB 3/4          
BERLIN         SNOW      26  21  81 SE10G18   30.19R VSB 1/2 WCI  16  
WHITEFIELD     LGT SNOW  28  24  85 VRB3      30.14S VSB 3/4          
JAFFREY        RAIN      33  31  92 VRB7      30.14F FOG              
KEENE          LGT SNOW  34  30  85 CALM      30.16F FOG              
LEBANON        LGT SNOW  32  26  78 SE10      30.16F                  
MT WASHINGTON  SNOW       9   9 100 SE39G48     N/A  VSB 1/16WCI -17  
$$

VTZ005-007-008-251600-
VERMONT
  
CITY           SKY/WX    TMP DP  RH WIND       PRES   REMARKS
ST JOHNSBURY     N/A     27  27 100 MISG      30.13R                  
MONTPELIER     LGT SNOW  27  25  92 S14       30.11F FOG     WCI  16  
BURLINGTON     FRZ RAIN  34  27  75 SE16G29   30.00F                  
$$

MAZ007-012-024-CTZ003-RIZ002-NYZ038-NYZ072-251600-
SOUTHERN NEW ENGLAND AND NY
  
CITY           SKY/WX    TMP DP  RH WIND       PRES   REMARKS
BOSTON         LGT RAIN  39  36  89 E16       30.23F FOG              
WORCESTER      RAIN      32  32 100 E10       30.15F VSB 1/4          
NANTUCKET      RAIN      41  40  96 E21G31    30.17F FOG              
PROVIDENCE     LGT RAIN  40  39  97 E7        30.20S FOG              
HARTFORD       RAIN      37  37 100 N7        30.13F FOG              
ALBANY         CLOUDY    38  33  82 SE10G21   30.05F                  
NEW YORK CITY  LGT RAIN  40  38  93 NE13      30.03F FOG              
$$

ANZ081-ANZ082-ANZ150-NHZ014-MEZ023>029-251600-
COASTAL MARINE OBSERVATIONS
  
STATION/POSITION TIME  TEMP    WIND        PRES    WAVE
                       AIR SEA DIR/SP/G            HT/PER
                 (UTC) (F)     (DEG/KT/KT) (MB)    (FT/S)
MOUNT DESERT ROC 1500   34      90/ 22/ 25 1027.4F
MATINICUS ROCK   1500   35     110/ 24/ 27 1025.8F
ISLE OF SHOALS   1500   37     110/ 23/ 26 1023.2F
JEFFREYS LEDGE   1436      41                N/A     5/ 6
GEORGES BANK BUO 1350   37 56              1022.0   16/10
$$

.............KEY..............
   WCI - WIND CHILL
   TC  - TEMPERATURE IN CELSIUS
   VSB - VISIBILITY IN MILES
   HX  - HEAT INDEX
   FAIR- INDICATES FEW OR NO CLOUDS BELOW 12,000 FT, WITH NO 
         SIGNIFICANT WEATHER AND/OR OBSTRUCTIONS TO VISIBILITY.